Dewpoint
0 7 9 10 12 12 12 13 13 11 11 0 -3 1 7 8 8 7 7 9 10 9 7 4 -1 -2 -7 -11 -12 -11 -11 -12 -11 -10 -9 -8 -7 -6 -6 -6 -5 -5 -6
-1 2 8 9 9 10 10 12 12 12 11 7 -3 -0 4 8 8 8 7 7 9 9 8 6 -1 -3 -5 -8 -11 -12 -11 -11 -10 -9 -8 -8 -7 -6 -6 -5 -5 -6 -7
3 4 4 8 8 8 8 11 12 12 12 10 0 -1 3 7 8 8 7 6 8 9 9 8 1 2 -5 -7 -10 -11 -11 -10 -9 -8 -8 -8 -7 -6 -6 -5 -6 -6 -8
-1 2 2 5 6 8 8 10 12 12 12 11 7 1 5 7 7 8 8 7 7 8 8 8 4 -1 -2 -5 -8 -11 -11 -10 -9 -8 -8 -8 -7 -7 -6 -6 -6 -7 -8
-4 1 3 3 5 7 8 8 10 11 12 11 8 4 6 8 8 8 8 7 5 7 7 8 4 0 -4 -3 -8 -10 -10 -10 -9 -8 -8 -8 -7 -7 -6 -7 -7 -8 -8
-8 -4 3 4 3 6 7 8 8 10 11 11 9 6 6 8 8 8 7 7 4 7 7 6 4 -1 -6 -5 -4 -8 -10 -10 -9 -8 -8 -8 -8 -7 -7 -7 -8 -8 -8
-9 -7 -7 1 3 4 6 7 7 8 10 11 10 7 7 8 8 8 7 6 4 5 5 6 5 -3 -7 -9 -5 -6 -10 -9 -9 -9 -9 -9 -8 -8 -8 -8 -8 -8 -9
-11 -10 -8 -5 1 3 4 6 7 7 8 9 10 7 8 8 7 8 7 7 6 5 1 1 2 -4 -6 -9 -9 -8 -8 -9 -9 -9 -9 -9 -9 -9 -8 -8 -8 -8 -8
-12 -10 -10 -7 -6 2 4 5 7 7 7 8 8 9 8 7 7 7 7 7 7 6 4 0 -5 -7 -7 -8 -8 -9 -9 -10 -9 -9 -9 -9 -9 -9 -9 -8 -8 -8 -8
-12 -11 -9 -9 -7 -3 3 5 5 6 6 7 8 8 9 6 6 6 6 7 7 6 4 2 -3 -6 -6 -8 -8 -9 -9 -10 -10 -9 -9 -9 -9 -9 -9 -9 -8 -8 -8
-13 -11 -10 -9 -6 -5 -2 4 4 5 6 6 8 8 6 7 3 2 3 5 6 6 4 1 -2 -5 -5 -7 -7 -8 -10 -10 -10 -10 -10 -10 -10 -10 -9 -9 -9 -8 -8
-14 -13 -12 -10 -9 -7 -2 -2 3 5 6 6 7 8 7 5 3 3 3 2 1 1 -0 0 -2 -3 -4 -5 -8 -8 -9 -9 -10 -10 -10 -10 -10 -10 -10 -9 -9 -9 -9
-15 -14 -13 -12 -10 -9 -6 -4 -1 3 6 6 6 7 8 6 5 4 3 5 3 2 -2 -2 -4 -4 -3 -4 -6 -8 -9 -8 -9 -10 -10 -10 -11 -10 -10 -10 -10 -10 -10
-18 -15 -14 -13 -12 -11 -9 -7 -3 0 4 5 6 6 7 8 8 7 5 4 3 -0 0 -3 -5 -5 -5 -5 -6 -7 -8 -8 -8 -9 -9 -10 -11 -11 -10 -10 -11 -11 -10
-29 -24 -16 -14 -13 -12 -10 -9 -8 -6 0 3 5 6 7 6 7 8 8 4 3 5 3 6 -3 -7 -6 -5 -6 -6 -8 -8 -8 -9 -9 -9 -10 -11 -11 -11 -12 -11 -10
-27 -30 -26 -16 -14 -13 -12 -10 -7 -5 -3 -1 2 6 6 7 7 8 8 9 7 4 5 3 -1 -6 -8 -7 -4 -4 -5 -6 -7 -7 -9 -11 -11 -12 -12 -12 -12 -12 -10
-27 -30 -29 -22 -16 -14 -13 -12 -10 -6 -4 -3 -1 3 5 6 7 7 7 8 9 5 5 5 0 -5 -7 -8 -8 -3 -3 -4 -5 -6 -9 -12 -13 -14 -13 -13 -14 -12 -10
-28 -28 -27 -24 -18 -15 -14 -13 -11 -10 -4 -4 -2 1 3 6 6 7 6 7 8 7 4 3 4 -3 -6 -9 -9 -6 -4 -3 -4 -6 -7 -10 -14 -15 -14 -14 -14 -12 -9
-27 -28 -25 -24 -21 -16 -14 -13 -12 -11 -8 -3 -4 -2 2 3 6 6 6 6 7 8 4 5 1 -4 -6 -9 -10 -7 -6 -3 -3 -5 -6 -8 -12 -15 -15 -15 -14 -11 -10
-27 -26 -25 -23 -20 -17 -15 -14 -12 -11 -10 -5 -4 -3 -1 2 3 4 6 6 7 8 7 7 4 -0 -3 -7 -12 -8 -8 -6 -4 -5 -6 -7 -11 -14 -15 -15 -13 -10 -9
-27 -27 -25 -23 -20 -18 -16 -14 -13 -12 -10 -9 -5 -3 -4 -2 2 2 4 6 6 7 7 7 5 -0 -2 -8 -10 -9 -11 -8 -9 -8 -5 -7 -11 -13 -15 -15 -11 -10 -7
-26 -26 -25 -24 -23 -19 -17 -15 -11 -9 -9 -8 -8 -5 -4 -5 -2 2 4 6 6 7 7 7 7 5 1 3 -7 -12 -13 -10 -11 -12 -8 -8 -10 -12 -15 -14 -10 -8 -8
-27 -26 -25 -25 -24 -23 -18 -16 -11 -9 -9 -9 -9 -8 -4 -4 -4 1 2 4 7 7 7 7 7 7 5 1 -8 -9 -9 -12 -13 -13 -13 -11 -11 -13 -15 -12 -9 -7 -9
-26 -27 -26 -26 -25 -25 -20 -16 -13 -10 -10 -10 -10 -9 -7 -4 -3 -2 1 2 5 6 7 7 6 7 7 6 -3 -1 -6 -11 -12 -12 -12 -12 -13 -14 -13 -10 -7 -9 -5
-26 -26 -26 -26 -25 -25 -23 -17 -13 -11 -10 -9 -8 -8 -8 -6 -4 -3 -1 1 2 5 6 7 6 6 7 6 2 1 1 -11 -10 -10 -11 -12 -13 -14 -11 -8 -7 -10 -1
-25 -25 -25 -25 -25 -25 -24 -19 -11 -10 -10 -9 -8 -8 -6 -5 -4 -3 -1 -0 1 3 6 7 6 5 5 6 6 5 3 -10 -7 -10 -11 -11 -12 -12 -9 -7 -9 -5 0
Wind_Speed
8 9 10 2 13 18 21 30 30 25 20 16 18 22 21 17 18 14 10 14 13 12 12 11 11 10 9 9 9 8 8 7 7 7 8 8 8 8 8 9 10 11 12
12 8 16 10 6 5 7 27 32 28 22 18 19 24 22 20 17 15 11 13 14 13 12 12 11 10 9 9 8 7 6 6 6 6 7 6 6 6 7 8 8 10 11
9 9 16 17 14 11 16 22 32 29 24 21 19 24 24 23 18 16 13 13 16 15 14 12 12 10 9 8 7 6 5 5 5 5 5 4 4 5 6 6 7 9 11
9 6 12 19 21 16 15 3 28 33 28 26 23 23 24 25 22 18 17 15 18 17 15 13 13 12 10 9 8 7 6 5 5 4 3 2 3 4 4 5 7 9 11
10 9 8 15 23 19 13 20 14 32 34 29 26 24 25 25 24 21 19 16 19 18 17 16 15 14 13 11 10 9 8 7 5 4 3 1 1 2 4 5 7 9 11
12 7 5 7 18 22 22 16 19 25 36 32 29 26 27 26 25 23 20 18 20 19 19 18 17 17 15 13 12 11 10 8 7 5 3 2 1 2 3 5 7 9 11
13 13 13 18 19 19 23 16 19 6 30 38 32 28 28 28 24 19 19 19 19 21 21 20 20 19 18 16 15 13 12 10 8 7 5 4 2 2 4 5 7 9 12
14 14 15 15 16 17 21 19 17 16 7 33 37 31 25 22 22 22 21 21 20 19 22 23 22 21 19 17 16 15 14 12 10 9 7 5 4 4 5 6 9 11 13
13 14 13 15 16 16 19 19 17 19 18 18 27 32 17 14 30 29 25 24 24 24 24 25 24 22 21 20 18 17 15 13 12 11 9 7 5 5 6 8 10 12 14
13 13 15 15 14 17 18 19 21 21 20 13 26 31 34 19 20 22 35 29 27 28 28 27 25 24 23 23 21 20 18 16 14 12 11 9 7 7 8 9 11 13 14
14 13 14 15 15 16 19 20 20 20 22 20 12 36 23 30 22 17 23 37 34 32 30 29 27 26 27 25 24 20 19 19 17 15 13 11 9 9 10 10 12 13 15
16 14 14 14 16 17 17 23 24 30 27 29 23 21 27 25 25 25 25 26 35 35 35 33 30 31 30 29 26 22 20 19 18 17 15 13 12 12 11 11 12 13 15
19 17 17 16 16 17 20 18 28 27 36 40 31 16 30 35 25 26 26 25 28 34 31 34 35 33 33 32 30 26 23 22 19 19 17 15 15 14 12 11 12 13 15
21 21 20 20 21 19 20 22 24 27 31 40 39 29 25 36 43 36 28 29 24 26 29 31 32 37 38 36 33 29 27 24 23 21 19 17 17 15 13 13 13 13 15
23 23 23 22 22 22 21 23 25 27 28 30 33 34 36 34 29 42 42 30 28 24 30 32 32 28 33 38 35 33 30 27 25 23 21 20 19 16 14 14 13 14 14
23 24 23 24 23 23 23 23 24 25 26 32 30 36 33 31 32 28 41 42 37 32 33 28 28 29 23 24 33 35 32 28 26 25 23 22 20 17 16 15 13 14 14
24 24 24 24 25 24 25 25 24 25 25 27 34 28 29 30 35 35 31 40 41 38 39 38 29 29 24 22 23 31 35 32 29 27 25 23 21 18 17 15 14 13 14
24 25 24 24 24 25 25 26 27 26 26 27 26 33 29 27 30 40 34 31 44 40 34 39 36 33 28 24 21 23 29 36 32 30 28 25 22 19 17 15 14 13 14
25 24 24 24 25 25 25 25 26 27 27 27 27 30 36 24 25 40 37 32 37 46 45 40 32 33 30 25 23 24 24 30 33 31 31 27 24 21 18 15 13 12 13
25 25 24 25 24 25 26 26 25 25 27 28 30 29 39 34 22 26 38 32 34 44 50 44 43 34 30 29 24 24 25 28 30 33 32 28 25 22 19 16 12 12 13
24 25 26 24 25 25 26 26 26 26 27 29 30 34 34 43 39 25 38 40 36 38 49 47 45 35 34 35 31 28 24 26 25 28 31 30 26 24 20 15 13 12 13
23 25 26 26 26 26 26 26 25 27 28 30 32 34 35 37 46 34 32 43 38 32 45 52 50 48 47 41 38 30 27 29 28 30 28 29 28 25 20 16 14 13 12
24 24 25 27 26 27 27 27 25 27 29 31 32 35 37 36 38 42 26 38 45 37 33 34 49 49 48 42 39 33 31 30 31 22 29 31 28 25 21 18 16 13 11
24 26 27 26 27 26 27 27 27 28 29 30 31 32 35 38 34 39 37 21 48 41 38 35 42 46 47 46 43 37 32 32 27 23 25 28 29 27 23 21 17 14 11
25 25 27 27 27 28 26 27 27 28 29 30 29 30 31 34 34 32 44 41 34 48 46 38 37 38 50 54 50 44 36 34 35 31 27 29 32 30 26 21 17 15 12
26 27 27 26 27 29 26 26 24 26 29 30 31 30 27 27 30 31 34 47 32 49 50 42 39 43 49 52 53 46 39 45 40 29 32 31 34 32 24 23 20 16 13
Wind_Direction
332 264 289 201 209 225 187 221 240 236 235 220 196 193 189 203 225 235 237 185 176 176 166 168 159 158 154 148 145 139 133 122 109 96 87 81 73 64 58 55 53 49 42
332 298 275 298 331 243 272 201 219 236 232 225 201 197 196 206 219 231 230 202 183 176 175 172 170 170 170 162 153 146 137 124 110 101 92 87 75 67 60 55 49 42 34
355 357 287 280 299 330 336 200 208 230 229 230 211 201 199 206 217 229 231 224 191 185 179 180 179 180 181 177 167 160 155 138 130 117 106 88 77 65 56 50 39 32 24
304 301 301 288 289 304 349 233 202 218 220 227 221 207 201 207 215 227 232 234 203 196 186 189 190 188 189 192 184 179 179 170 151 145 122 109 77 60 47 38 26 21 16
327 322 341 310 288 296 312 339 175 208 215 217 222 210 203 208 216 222 233 241 209 201 196 201 197 198 198 198 199 194 197 187 179 172 154 145 80 44 34 19 12 10 4
320 308 289 257 284 280 288 314 348 206 207 220 212 208 204 211 219 226 233 242 222 208 205 207 208 208 206 207 207 204 206 199 197 195 192 207 248 352 5 1 358 357 356
310 306 303 274 278 284 287 306 323 36 201 208 203 198 202 210 219 225 235 230 227 219 215 214 216 215 214 212 210 212 215 209 209 212 214 226 254 311 327 342 343 347 350
305 305 304 303 271 274 278 286 293 344 221 199 201 192 185 197 213 218 223 228 224 233 232 224 223 223 219 218 220 218 220 215 218 222 227 236 252 284 309 324 331 339 347
301 300 292 295 291 263 270 285 271 289 312 208 206 197 171 201 202 212 219 220 224 234 238 238 233 230 223 220 223 224 227 222 225 228 234 242 256 277 299 313 322 334 342
307 298 298 291 300 285 251 267 277 281 297 333 218 211 216 215 186 204 215 219 223 234 234 233 234 233 231 224 227 226 226 226 228 231 237 244 255 274 290 302 315 331 336
313 305 297 296 288 288 271 243 259 263 273 286 328 223 224 217 212 199 208 218 224 230 234 232 232 233 233 229 229 229 229 228 229 233 238 243 255 266 280 297 314 326 331
320 311 301 298 293 286 282 265 249 259 261 275 279 242 233 214 211 217 220 220 225 233 240 239 236 234 232 234 233 231 230 230 231 233 239 246 255 264 277 293 308 318 323
331 322 312 301 296 292 282 273 267 256 246 261 267 280 249 227 224 227 241 222 226 235 239 244 244 240 236 235 236 235 232 231 232 234 238 244 255 264 276 288 298 310 321
335 330 321 312 302 295 290 278 266 264 243 244 255 269 269 255 242 238 241 242 224 228 238 249 252 247 241 238 235 235 235 231 232 235 239 244 253 263 273 280 294 308 311
330 326 322 315 307 300 293 286 272 266 260 253 241 242 261 267 268 245 239 236 243 238 241 248 248 255 248 242 237 234 235 233 232 234 238 243 251 260 268 277 290 300 311
326 320 317 316 310 304 298 293 286 273 267 258 263 237 245 261 266 276 251 246 237 243 250 259 252 255 255 247 240 235 234 233 232 233 236 240 248 255 262 272 286 296 304
324 320 314 312 313 309 302 297 294 283 271 263 257 264 244 242 259 263 271 250 244 237 245 250 253 246 246 245 240 233 228 230 229 230 233 236 243 249 257 268 280 290 298
322 320 316 312 311 311 306 301 295 289 277 268 266 257 259 236 253 256 264 264 247 236 236 240 242 249 241 243 238 234 228 225 225 227 230 233 237 242 249 259 271 283 292
319 319 317 314 311 311 309 303 299 293 286 278 272 255 259 258 235 255 250 258 262 238 227 231 236 242 239 237 231 225 225 223 223 224 228 228 231 236 241 251 261 275 285
315 316 316 315 312 310 310 309 303 294 288 277 270 267 254 258 266 262 251 252 259 244 233 231 228 230 242 238 227 224 222 220 220 222 226 225 228 230 234 243 252 259 278
310 312 314 313 311 310 311 312 305 298 291 286 275 268 260 256 258 269 253 246 251 257 241 227 225 225 225 228 220 224 226 224 221 221 221 221 223 226 227 229 238 249 275
305 307 310 311 312 310 311 310 307 301 295 288 283 274 269 260 258 267 243 248 245 251 248 229 224 223 224 228 227 217 217 213 213 215 212 215 218 219 217 217 223 243 267
302 304 304 307 310 310 310 309 307 299 292 287 283 279 274 270 258 257 279 247 246 243 253 250 235 229 226 220 223 217 215 221 218 208 207 206 207 209 205 207 215 237 255
300 303 303 306 307 308 310 309 307 301 295 291 286 282 279 275 266 259 258 275 248 245 242 244 245 244 233 232 224 227 223 215 207 209 206 205 200 197 196 200 215 229 245
298 299 301 305 305 306 309 309 307 306 301 297 293 286 284 279 276 264 258 258 265 248 243 243 243 243 235 230 224 229 217 215 204 207 200 204 195 190 190 200 213 223 232
296 299 301 303 305 306 307 307 308 305 301 301 299 296 290 287 286 277 264 256 267 249 247 239 237 238 238 238 237 227 214 214 203 197 200 197 194 186 186 199 208 215 218
Height
1540 1542 1543 1540 1544 1547 1543 1551 1554 1558 1561 1563 1566 1569 1569 1570 1572 1574 1575 1576 1576 1576 1576 1577 1577 1578 1579 1580 1580 1580 1580 1580 1581 1581 1582 1582 1582 1582 1581 1581 1580 1578 1577
1537 1535 1540 1539 1541 1542 1539 1542 1548 1554 1558 1561 1563 1566 1568 1569 1570 1572 1573 1575 1576 1577 1577 1577 1577 1578 1579 1580 1581 1581 1581 1582 1582 1582 1583 1582 1583 1582 1582 1581 1580 1578 1577
1538 1535 1535 1536 1541 1541 1543 1537 1543 1550 1554 1557 1560 1562 1564 1566 1568 1570 1572 1573 1574 1576 1576 1577 1577 1578 1579 1580 1581 1582 1581 1582 1583 1583 1584 1583 1583 1583 1582 1581 1580 1579 1577
1537 1533 1532 1536 1539 1537 1535 1535 1540 1545 1549 1552 1556 1559 1561 1563 1565 1568 1569 1570 1572 1574 1575 1576 1577 1578 1579 1580 1581 1581 1582 1582 1584 1584 1584 1584 1583 1583 1582 1581 1580 1579 1577
1534 1533 1532 1532 1530 1531 1532 1537 1533 1538 1542 1547 1553 1556 1559 1561 1562 1564 1566 1568 1569 1571 1573 1575 1575 1576 1578 1579 1580 1581 1581 1582 1583 1584 1585 1585 1584 1583 1582 1581 1580 1579 1577
1531 1530 1530 1526 1528 1532 1534 1532 1531 1532 1537 1543 1549 1553 1557 1559 1561 1563 1564 1566 1566 1568 1570 1572 1573 1574 1576 1578 1579 1580 1581 1582 1583 1584 1584 1584 1584 1583 1582 1581 1580 1578 1576
1529 1529 1524 1522 1523 1525 1526 1530 1535 1527 1534 1538 1543 1550 1553 1556 1559 1561 1561 1562 1564 1565 1567 1569 1570 1571 1573 1575 1577 1579 1580 1581 1582 1583 1583 1583 1584 1583 1581 1580 1578 1577 1576
1526 1524 1524 1524 1522 1522 1525 1531 1528 1527 1532 1535 1534 1544 1550 1556 1557 1557 1558 1559 1560 1563 1563 1565 1566 1568 1570 1573 1575 1576 1578 1580 1581 1582 1582 1583 1583 1582 1581 1579 1578 1576 1575
1524 1523 1524 1522 1517 1516 1522 1521 1526 1528 1533 1528 1532 1530 1542 1544 1548 1552 1553 1555 1556 1557 1559 1561 1563 1565 1567 1570 1572 1574 1576 1578 1579 1581 1582 1582 1582 1581 1580 1578 1577 1575 1574
1521 1520 1518 1517 1513 1516 1515 1516 1519 1524 1524 1527 1528 1529 1530 1532 1536 1542 1546 1548 1551 1552 1554 1556 1559 1561 1564 1566 1568 1570 1573 1575 1577 1579 1580 1580 1581 1580 1578 1577 1575 1574 1573
1518 1516 1515 1513 1512 1511 1511 1508 1515 1521 1522 1525 1525 1528 1527 1526 1528 1529 1534 1540 1544 1546 1548 1550 1554 1556 1559 1561 1564 1566 1570 1572 1575 1576 1577 1578 1578 1578 1577 1576 1574 1573 1572
1515 1514 1511 1510 1509 1507 1509 1509 1511 1512 1515 1517 1522 1521 1523 1523 1524 1525 1527 1532 1535 1538 1541 1544 1547 1550 1553 1556 1559 1563 1566 1569 1571 1573 1575 1575 1575 1575 1575 1574 1573 1571 1570
1512 1510 1509 1506 1506 1503 1504 1503 1508 1508 1506 1513 1516 1514 1518 1519 1521 1522 1526 1523 1528 1532 1536 1539 1541 1544 1547 1550 1554 1558 1562 1565 1567 1569 1571 1572 1572 1573 1573 1572 1571 1570 1568
1507 1505 1505 1503 1503 1499 1497 1501 1503 1505 1503 1506 1507 1508 1511 1514 1516 1519 1523 1523 1524 1526 1529 1533 1535 1537 1540 1544 1548 1553 1556 1560 1563 1565 1568 1569 1569 1570 1571 1570 1569 1568 1565
1504 1503 1501 1500 1501 1498 1497 1497 1496 1497 1497 1497 1498 1500 1503 1509 1509 1512 1515 1518 1522 1521 1522 1526 1529 1530 1532 1537 1542 1545 1549 1554 1557 1561 1564 1566 1566 1568 1568 1567 1567 1565 1563
1504 1501 1499 1497 1495 1494 1494 1492 1489 1490 1488 1492 1495 1494 1498 1502 1503 1504 1506 1511 1513 1518 1519 1522 1524 1525 1527 1529 1533 1539 1543 1548 1552 1556 1558 1561 1562 1564 1565 1565 1564 1563 1561
1499 1497 1494 1491 1490 1488 1486 1486 1483 1482 1484 1486 1488 1485 1488 1492 1494 1498 1499 1501 1504 1509 1513 1516 1519 1520 1522 1524 1526 1530 1536 1541 1545 1549 1553 1555 1557 1560 1561 1563 1562 1560 1559
1495 1491 1489 1487 1486 1483 1482 1479 1479 1479 1477 1477 1474 1479 1480 1480 1487 1489 1489 1492 1496 1499 1506 1510 1513 1515 1516 1518 1521 1524 1527 1533 1538 1543 1546 1550 1553 1555 1556 1558 1559 1558 1556
1490 1488 1485 1483 1480 1479 1478 1477 1475 1474 1470 1467 1468 1469 1473 1472 1474 1481 1479 1482 1486 1491 1497 1503 1506 1508 1510 1513 1515 1517 1521 1525 1531 1536 1540 1544 1547 1551 1551 1554 1555 1555 1553
1486 1484 1482 1479 1478 1476 1473 1471 1469 1467 1464 1462 1461 1461 1463 1464 1468 1470 1471 1473 1479 1483 1488 1491 1497 1501 1505 1507 1509 1512 1514 1519 1523 1529 1533 1538 1542 1545 1546 1550 1552 1551 1550
1482 1479 1477 1476 1473 1470 1467 1466 1463 1460 1458 1455 1455 1454 1453 1456 1459 1459 1463 1463 1469 1473 1477 1482 1488 1491 1497 1499 1502 1504 1509 1515 1519 1521 1525 1531 1536 1539 1541 1544 1548 1547 1547
1477 1474 1472 1470 1466 1464 1461 1460 1457 1453 1450 1447 1446 1445 1444 1444 1448 1451 1449 1454 1458 1464 1469 1472 1477 1477 1487 1492 1496 1499 1502 1509 1511 1512 1518 1525 1530 1533 1536 1539 1542 1543 1543
1470 1468 1468 1465 1459 1458 1456 1453 1451 1448 1443 1440 1438 1436 1434 1435 1440 1441 1443 1445 1450 1455 1459 1462 1465 1468 1475 1482 1491 1492 1496 1501 1504 1506 1512 1516 1522 1526 1530 1534 1536 1538 1539
1463 1460 1461 1458 1453 1452 1450 1448 1444 1441 1436 1433 1431 1431 1428 1428 1430 1434 1436 1436 1440 1442 1450 1454 1458 1464 1467 1474 1483 1489 1492 1495 1499 1503 1507 1510 1515 1519 1523 1529 1531 1534 1534
1456 1454 1452 1450 1447 1444 1443 1440 1438 1433 1428 1426 1424 1423 1422 1420 1423 1425 1427 1426 1429 1431 1441 1445 1449 1453 1458 1463 1474 1481 1483 1490 1491 1495 1499 1504 1509 1513 1517 1523 1527 1529 1530
1449 1447 1445 1443 1440 1436 1436 1433 1431 1429 1424 1421 1418 1417 1416 1417 1417 1418 1418 1418 1418 1421 1430 1433 1437 1442 1447 1450 1459 1469 1475 1478 1482 1487 1492 1497 1503 1508 1512 1518 1522 1525 1526